Location: Glendale
(37.4556°N, 88.6714°W)
Time: 12:12:56
(UTC+00:00)

Cosmos 1092 Rocket - Pass Details

Date: 08 December 2019
Orbit: 953 x 996 km, 83.0° (Epoch: 23 January)

Event Time Altitude Azimuth Distance (km) Brightness Sun altitude
Rises 11:17:42 0° 352° (N) 3,657 6.8 -19.1°
Reaches altitude 10° 11:20:13 10° 352° (N) 2,702 6.1 -18.6°
Maximum altitude 11:26:24 85° 264° (W) 964 3.9 -17.4°
Drops below altitude 10° 11:32:31 10° 177° (S) 2,671 6.5 -16.2°
Sets 11:34:59 0° 177° (S) 3,613 7.2 -15.8°
